sat.trackr.live / text

‹ back to catalog

STARLINK-3342

NORAD 50816 · 2022-001P

PAYLOAD ACTIVE UNKNOWN

§ Identity

Operator
Country
US
Launch date
2022-01-06
Launch site
AFETR
Launch vehicle
Mass (kg)
RCS (m²)

Purposes: comms

External: N2YO · Heavens-Above · Gunter

§ Orbital elements

Epoch: 2026-09-19T23:29:57.894720Z

Period
94.67 min
Inclination
53.2164°
Eccentricity
0.0001943
Mean motion
15.21008823 rev/d
Perigee alt
501.5 km
Apogee alt
504.1 km
Semi-major
6,880.9 km
B*
2.6510e-4
RAAN
3.7054°
Arg perigee
85.7491°
Mean anomaly
274.3729°
Rev number
25,992

§ Raw data

STARLINK-33421 50816U 22001P   26262.97914230  .00005633  00000+0  26510-3 0  99912 50816  53.2164   3.7054 0001943  85.7491 274.3729 15.21008823259924

JSON: /api/v1/satellites/50816 · /tle

For live sub-satellite position, see the globe view (requires WebGL).

§ Visibility from observer

Set your observer location to see the next 7 days of passes ≥ 10°. The values pass through the URL so the page stays shareable.

No JS? Fill the form by hand. The geolocation button needs JavaScript.